#timestamp,LO_Frequency,Hit,StdDev 
1596340815.3,286046996.7,N
1596340835.1,286047000.6,N
1596340855.9,286047001.8,N
1596340875.7,286047002.0,N
1596340895.5,286047002.4,N
1596340915.4,286047006.5,N
1596340935.2,286047008.4,N
1596340955.1,286047012.3,N
1596340956.0,286047012.3,N
1596340975.8,286047013.7,N
1596340995.6,286047018.7,N
1596341015.5,286047020.3,N
1596341035.3,286047020.0,N
1596341055.1,286047019.5,N
1596341075.9,286047017.7,N
1596341095.7,286047018.5,N
1596341115.6,286047021.1,N
1596341135.4,286047022.3,N
1596341155.2,286047025.0,N
1596341175.1,286047026.1,N
1596341176.0,286047026.1,N
1596341195.8,286047031.8,N
1596341215.7,286047036.5,N
1596341235.5,286047035.4,N
1596341255.3,286047027.4,N
1596341275.2,286047028.3,N
1596341295.0,286047025.3,N
1596341295.9,286047025.3,N
1596341315.7,286047027.2,N
1596341335.6,286047033.8,Y
1596341355.4,286047024.3,P
1596341375.3,286047036.0,P
1596341395.1,286047049.5,P
1596341396.0,286047049.5,Y
1596341415.8,286047041.2,P
1596341435.7,286047044.8,P
1596341455.5,286047055.2,P
1596341475.4,286047063.6,Y
1596341495.2,286047030.8,P
1596341515.0,286047044.2,P
1596341515.9,286047044.2,P
1596341535.8,286047053.6,Y
1596341555.6,286047015.1,P
1596341575.4,286047022.5,N
1596341595.3,286047034.6,P
1596341615.1,286047041.8,Y
1596341635.9,286047024.0,P
1596341655.7,286047030.9,P
1596341675.5,286047041.1,P
1596341695.4,286047046.1,Y
1596341715.2,286047033.1,P
1596341735.1,286047034.7,P
1596341736.0,286047034.7,P
1596341755.8,286047035.2,Y
1596341775.6,286047016.5,P
1596341795.5,286047009.3,N
1596341815.3,286046993.8,N
1596341835.1,286046979.0,N
1596341855.9,286046979.8,N
1596341875.7,286046972.9,N
1596341895.6,286046972.8,N
1596341915.4,286046967.6,N
1596341935.2,286046951.3,N
1596341955.1,286046932.0,N
1596341956.0,286046932.0,N
1596341975.8,286046911.2,N
1596341995.7,286046891.1,Y
1596342015.5,286046902.1,P
1596342035.3,286046890.3,P
1596342055.2,286046876.1,P
1596342075.9,286046862.7,Y
1596342095.7,286046949.7,P
1596342115.6,286046944.0,N
1596342135.4,286046941.3,P
1596342155.3,286046937.3,Y
1596342175.1,286047001.4,P
1596342176.0,286047001.4,N
1596342195.8,286047002.5,N
1596342215.7,286046997.7,N
1596342235.5,286046998.8,N
1596342255.3,286047003.4,N
1596342275.2,286047008.9,N
1596342295.0,286047010.9,N
1596342295.9,286047010.9,N
1596342315.8,286047023.4,N
1596342335.6,286047046.0,N
1596342355.4,286047048.7,N
1596342375.3,286047037.0,N
1596342395.1,286047024.6,N
1596342415.8,286047018.6,N
1596342435.7,286047009.7,N
1596342455.5,286046995.7,N
1596342475.4,286046984.3,N
1596342495.2,286046975.2,N
1596342515.0,286046964.7,N
1596342515.9,286046960.7,N
1596342535.8,286046959.1,N
1596342555.6,286046950.3,N
1596342575.4,286046946.7,N
1596342595.3,286046941.0,N
1596342615.1,286046942.8,N
1596342635.9,286046939.2,N
1596342655.7,286046933.0,N
1596342675.5,286046930.0,N
1596342695.4,286046923.1,N
1596342715.2,286046922.4,N
1596342735.0,286046922.9,N
1596342735.9,286046922.9,N
1596342755.8,286046921.4,N
1596342775.6,286046915.8,N
1596342795.5,286046905.4,N
1596342815.3,286046899.7,N
1596342835.1,286046900.3,N
1596342855.9,286046893.4,N
1596342875.7,286046886.0,N
1596342895.6,286046885.5,N
1596342915.4,286046886.3,N
1596342935.2,286046883.7,N
1596342955.1,286046884.0,N
1596342956.0,286046884.0,Y
1596342975.8,286046954.0,P
1596342995.6,286046956.7,P
1596343015.5,286046951.1,P
1596343035.3,286046946.4,Y
1596343055.2,286046999.8,P
1596343075.9,286046997.7,N
1596343095.7,286046991.6,N
1596343115.6,286046987.3,N
1596343135.4,286046985.9,N
1596343155.2,286046988.4,N
1596343175.1,286046987.3,N
1596343176.0,286046987.3,N
1596343195.8,286046985.1,N
1596343215.7,286046980.4,N
1596343235.5,286046973.5,N
1596343255.3,286046973.8,N
1596343275.2,286046970.6,N
1596343295.0,286046967.5,N
1596343295.9,286046967.5,N
1596343315.8,286046961.7,Y
1596343335.6,286046980.1,P
1596343355.4,286046985.0,P
1596343375.3,286046987.5,P
1596343395.1,286046991.6,N
1596343415.8,286046992.8,N
1596343435.7,286046995.4,N
1596343455.5,286046998.3,N
1596343475.4,286047001.0,N
1596343495.2,286047001.6,N
1596343515.0,286047004.0,N
1596343515.9,286047004.0,N
1596343535.8,286047002.3,N
1596343555.6,286046999.6,N
1596343575.4,286046993.9,N
1596343595.3,286046989.2,N
1596343615.1,286046984.0,N
1596343635.9,286046980.8,N
1596343655.7,286046976.0,N
1596343675.5,286046971.5,Y
1596343695.4,286046975.3,P
1596343715.2,286046972.7,P
1596343735.0,286046971.4,P
1596343735.9,286046971.4,Y
1596343755.8,286046990.4,P
1596343775.6,286046988.0,N
1596343795.5,286046986.0,N
1596343815.3,286046982.1,Y
1596343835.1,286046996.1,P
1596343855.9,286046993.5,N
1596343875.7,286046992.9,N
1596343895.6,286046988.5,N
1596343915.4,286046988.7,Y
1596343935.2,286046997.0,P
1596343955.1,286046996.8,N
1596343956.0,286046996.8,N
1596343975.8,286046996.7,N
1596343995.7,286046995.6,N
1596344015.5,286046996.0,N
1596344035.3,286046994.3,Y
1596344055.2,286046995.4,P
1596344075.0,286046996.8,P
1596344075.9,286046996.8,P
1596344095.8,286046994.9,Y
1596344115.6,286046997.2,P
1596344135.4,286046996.2,P
1596344155.3,286046993.6,P
1596344175.1,286046993.8,Y
1596344195.8,286046999.2,P
1596344215.7,286046999.1,N
1596344235.5,286046996.5,N
1596344255.4,286046996.8,N
1596344275.2,286046997.9,N
1596344295.0,286046993.3,Y
1596344295.9,286046993.3,P
1596344315.8,286046997.7,N
1596344335.6,286046997.9,N
1596344355.4,286046999.2,N
1596344375.3,286046997.9,N
1596344395.1,286046996.3,N
